CW8630 Weather Reports


time (UTC)temp
C
wind
direction
speed
KPH
gust
KPH
rain 1hr
cm
rain 24hr
cm
rain mn
cm
humidity
%
barometer
mb
20260504080141 12 283 4.8 12.9 0.00 0.23 0.00 68 1003.4
20260504070140 13 202 4.8 11.3 0.00 0.23 0.00 66 1004.4
20260504060132 14 297 6.4 14.5 0.00 0.23 0.00 62 1005.1
20260504050128 15 300 8.0 20.9 0.00 0.23 0.00 61 1005.3
20260504045627 15 246 8.0 20.9 0.00 0.23 0.23 61 1005.3
20260504045127 15 291 8.0 19.3 0.00 0.23 0.23 62 1005.3
20260504044627 15 234 8.0 22.5 0.00 0.23 0.23 62 1005.3
20260504044127 15 244 8.0 22.5 0.00 0.23 0.23 62 1005.2
20260504043628 15 293 6.4 19.3 0.00 0.23 0.23 63 1005.3
20260504043129 15 241 6.4 14.5 0.00 0.23 0.23 63 1005.3
20260504042128 15 256 8.0 19.3 0.00 0.23 0.23 64 1005.3
20260504041630 15 285 8.0 19.3 0.00 0.23 0.23 64 1005.2
20260504041125 15 250 8.0 17.7 0.00 0.23 0.23 65 1005.2
20260504040625 15 250 8.0 19.3 0.00 0.23 0.23 65 1005.3
20260504040127 14 189 8.0 19.3 0.00 0.23 0.23 66 1005.3
20260504035125 14 252 4.8 14.5 0.00 0.23 0.23 67 1005.2
20260504034625 14 216 6.4 14.5 0.00 0.23 0.23 67 1005.2
20260504033626 14 234 4.8 14.5 0.00 0.23 0.23 67 1005.2
20260504033126 14 194 4.8 14.5 0.00 0.23 0.23 67 1005.3
20260504032625 15 269 4.8 11.3 0.00 0.23 0.23 66 1005.4
20260504032126 15 196 6.4 14.5 0.00 0.23 0.23 66 1005.4
20260504031625 15 196 6.4 14.5 0.00 0.23 0.23 66 1005.4
20260504031126 15 209 6.4 14.5 0.00 0.23 0.23 65 1005.3
20260504030625 15 190 6.4 14.5 0.00 0.23 0.23 65 1005.4
20260504030125 15 204 6.4 11.3 0.00 0.23 0.23 64 1005.4
20260504025622 15 124 6.4 12.9 0.00 0.23 0.23 64 1005.3
20260504025122 15 232 6.4 12.9 0.00 0.23 0.23 63 1005.4
20260504024621 15 217 6.4 11.3 0.00 0.23 0.23 63 1005.4
20260504024122 16 259 6.4 12.9 0.00 0.23 0.23 62 1005.4
20260504023121 16 202 6.4 12.9 0.00 0.23 0.23 62 1005.3
20260504022619 16 189 6.4 14.5 0.00 0.23 0.23 61 1005.3
20260504022115 16 210 6.4 14.5 0.00 0.23 0.23 61 1005.2
20260504021608 16 172 6.4 12.9 0.00 0.23 0.23 61 1005.2
20260504021101 16 203 6.4 12.9 0.00 0.23 0.23 60 1005.2
20260504020555 16 227 6.4 14.5 0.00 0.23 0.23 60 1005.2
20260504020050 16 219 6.4 14.5 0.00 0.23 0.23 59 1005.2
20260504015544 17 241 6.4 12.9 0.00 0.23 0.23 59 1005.1
20260504014532 17 203 6.4 14.5 0.00 0.23 0.23 58 1005.0
20260504014025 17 199 6.4 14.5 0.00 0.23 0.23 57 1005.0
20260504013520 17 231 8.0 16.1 0.00 0.23 0.23 57 1004.9
20260504013014 17 264 8.0 19.3 0.00 0.23 0.23 56 1004.9
20260504012508 17 231 8.0 16.1 0.00 0.23 0.23 56 1004.9
20260504012003 18 201 6.4 17.7 0.00 0.23 0.23 55 1004.9
20260504011455 18 223 8.0 17.7 0.00 0.23 0.23 55 1004.8
20260504010949 18 183 8.0 17.7 0.00 0.23 0.23 54 1004.9
20260504010443 18 194 8.0 17.7 0.00 0.23 0.23 54 1004.9
20260504005431 18 216 9.7 19.3 0.00 0.23 0.23 52 1004.9
20260504004926 18 217 8.0 19.3 0.00 0.23 0.23 51 1004.8
20260504004420 19 250 8.0 19.3 0.00 0.23 0.23 50 1004.9
20260504003913 19 203 6.4 16.1 0.00 0.23 0.23 50 1004.8
20260504003408 19 210 6.4 16.1 0.00 0.23 0.23 50 1004.8
20260504002903 19 212 6.4 16.1 0.00 0.23 0.23 50 1004.8
20260504001849 20 233 6.4 19.3 0.00 0.23 0.23 49 1004.9
20260504000837 20 237 6.4 16.1 0.00 0.23 0.23 48 1004.9
20260504000332 20 288 8.0 19.3 0.00 0.23 0.23 48 1004.8
20260503235826 20 254 8.0 27.4 0.00 0.23 0.23 47 1004.8
20260503235320 20 294 9.7 27.4 0.00 0.23 0.23 48 1004.9
20260503234309 20 303 12.9 27.4 0.00 0.23 0.23 47 1004.9
20260503233803 20 230 11.3 25.7 0.00 0.23 0.23 46 1004.9
20260503232751 20 273 8.0 22.5 0.00 0.23 0.23 47 1004.9
20260503232244 20 244 9.7 25.7 0.00 0.23 0.23 46 1005.0
20260503231231 20 228 14.5 33.8 0.00 0.23 0.23 46 1005.1
20260503230728 20 269 14.5 38.6 0.00 0.23 0.23 46 1004.9
20260503230220 20 240 14.5 38.6 0.00 0.23 0.23 46 1005.1
20260503225714 20 249 12.9 29.0 0.00 0.23 0.23 46 1005.1
20260503225208 20 246 11.3 30.6 0.00 0.23 0.23 47 1005.1
20260503224702 20 158 11.3 30.6 0.00 0.23 0.23 47 1005.2
20260503224155 20 350 14.5 35.4 0.00 0.23 0.23 47 1005.1
20260503223651 20 278 16.1 35.4 0.00 0.23 0.23 46 1005.2
20260503223143 21 216 12.9 29.0 0.00 0.23 0.23 45 1005.2
20260503222132 21 270 14.5 32.2 0.00 0.23 0.23 46 1005.3
20260503221632 21 237 12.9 33.8 0.00 0.23 0.23 46 1005.3
20260503220132 20 253 12.9 27.4 0.00 0.23 0.23 46 1005.4
20260503215132 20 287 12.9 32.2 0.00 0.23 0.23 47 1005.4
20260503214134 20 178 11.3 25.7 0.00 0.23 0.23 47 1005.5
20260503213133 20 262 12.9 33.8 0.00 0.23 0.23 47 1005.4
20260503212632 20 262 14.5 33.8 0.00 0.23 0.23 46 1005.5
20260503212133 20 215 14.5 33.8 0.00 0.23 0.23 47 1005.3
20260503211634 20 224 16.1 41.8 0.00 0.23 0.23 47 1005.5
20260503210633 20 189 16.1 40.2 0.00 0.23 0.23 47 1005.6
20260503205630 19 184 17.7 40.2 0.00 0.23 0.23 49 1005.7
20260503204112 18 185 14.5 30.6 0.00 0.23 0.23 49 1006.0
20260503203604 18 251 16.1 38.6 0.00 0.23 0.23 50 1006.2
20260503203058 18 189 14.5 38.6 0.00 0.23 0.23 49 1006.4
20260503202553 18 226 12.9 33.8 0.00 0.23 0.23 49 1006.5
20260503202046 18 158 14.5 33.8 0.00 0.23 0.23 50 1006.6
20260503201541 18 181 14.5 37.0 0.00 0.23 0.23 50 1006.8
20260503200529 17 220 17.7 33.8 0.00 0.23 0.23 50 1007.0
20260503200024 17 210 17.7 33.8 0.00 0.23 0.23 50 1007.1
20260503195517 18 174 20.9 40.2 0.00 0.23 0.23 49 1007.1
20260503195011 18 232 22.5 40.2 0.00 0.23 0.23 48 1007.4
20260503193959 18 165 17.7 40.2 0.00 0.23 0.23 46 1007.6
20260503193453 18 191 17.7 37.0 0.00 0.23 0.23 49 1007.6
20260503192947 18 299 17.7 43.5 0.00 0.23 0.23 50 1007.8
20260503192440 18 195 19.3 43.5 0.00 0.23 0.23 49 1007.7
20260503191935 18 207 19.3 41.8 0.00 0.23 0.23 48 1007.8
20260503190922 17 264 20.9 48.3 0.00 0.23 0.23 53 1007.8
20260503190416 17 259 20.9 48.3 0.00 0.23 0.23 55 1007.9
20260503185911 17 229 20.9 45.1 0.00 0.23 0.23 58 1008.1
20260503185405 16 203 20.9 46.7 0.00 0.23 0.23 56 1008.2
20260503184859 16 202 20.9 46.7 0.00 0.23 0.23 61 1008.3
20260503184352 16 200 20.9 43.5 0.00 0.23 0.23 61 1008.3
20260503183847 16 208 17.7 40.2 0.00 0.23 0.23 64 1008.3
20260503183340 16 243 20.9 46.7 0.00 0.23 0.23 63 1008.3
20260503182836 15 192 20.9 46.7 0.00 0.23 0.23 63 1008.3
20260503182328 15 208 19.3 46.7 0.00 0.23 0.23 67 1008.4
20260503181823 15 203 16.1 46.7 0.00 0.23 0.23 69 1008.6
20260503181317 14 195 16.1 33.8 0.00 0.23 0.23 71 1008.6
20260503180811 14 175 16.1 33.8 0.00 0.23 0.23 71 1008.7
20260503180304 13 155 17.7 33.8 0.00 0.23 0.23 72 1008.9
20260503175758 13 159 16.1 32.2 0.00 0.23 0.23 75 1008.9
20260503174747 12 108 14.5 30.6 0.00 0.23 0.23 77 1009.1
20260503174240 12 219 14.5 30.6 0.00 0.23 0.23 77 1009.4
20260503173735 12 169 12.9 35.4 0.00 0.23 0.23 77 1009.6
20260503172722 11 143 16.1 43.5 0.03 0.23 0.23 78 1009.9
20260503171710 11 188 11.3 27.4 0.03 0.23 0.23 82 1010.0
20260503171204 11 146 11.3 20.9 0.03 0.23 0.23 83 1009.8
20260503170701 10 131 9.7 20.9 0.03 0.23 0.23 84 1010.1
20260503170153 10 115 11.3 25.7 0.03 0.23 0.23 86 1010.5
20260503150519 9 155 6.4 12.9 0.15 0.15 0.15 84 1012.6
20260503131007 9 225 9.7 27.4 0.00 0.00 0.00 65 1013.5
20260503110819 7 220 8.0 19.3 0.00 0.00 0.00 66 1012.6
20260503110315 7 179 8.0 19.3 0.00 0.00 0.00 66 1012.6
20260503100202 8 260 8.0 19.3 0.00 0.00 0.00 60 1013.2
20260503080602 8 153 8.0 20.9 0.00 0.00 0.00 57 1013.6